Weather in Ipswich

United Kingdom     52°03′30″N   1°11′41″E
temp.,
°C
wind,
m/s
gust,
m/s
humid.,
%
clouds,
%
prec.,
mm/h
press.,
hPa
HPBL,
m
27 november, sat
sat2700:00+3wsw71291100 0.0 982774
03:00+3sse1297100 0.7 981395
06:00+4nne71179100 2.7 985753
09:00+5n7137394 0.2 990646
12:00+8nnw9136898 0.3 9921417
15:00+8n10157454 0.3 9931240
18:00+6nnw121782100 1.8 9951286
21:00+5nnw111787100 0.2 9981164
28 november, sun
sun2800:00+5nnw12168593 0.4 999933
03:00+4nnw101491100 0.2 1001898
06:00+4n101594100 1.3 1003967
09:00+5nnw8137699 0.0 1004933
12:00+4nw9138143 0.0 1005749
15:00+4nnw9138033 0.0 1006796
18:00+3nw914845 0.0 1007523
21:00+2nw814855 0.0 1008383
29 november, mon
mon2900:00+1nw7138720 0.0 1009321
03:000nw611684 0.0 1010256
06:000nw5107051 0.0 1010248
09:00+1wnw5989100 0.0 1012311
12:00+4nw577739 0.0 1012521
15:00+3wnw468491 0.0 1013260
18:00+1wnw35925 0.0 1014111
21:00+1w46915 0.0 1014124
30 november, tue
tue3000:00+3wsw61278100 0.0 1013304
03:00+6w8179285 1.1 1011565
06:00+8w9179290 1.3 1011615
09:00+9w81592100 0.0 1011666
12:00+9w81591100 0.3 1011752
15:00+9w71391100 0.3 1010553
18:00+9wsw61392100 0.4 1009477
21:00+9wsw7149299 0.0 1007566
1 december, wed
wed100:00+9sw81690100 0.1 1003795
03:00+10sw91790100 1.2 998889
06:00+10wsw101590100 2.3 994964
09:00+9nw81187100 0.6 995900
12:00+8wnw51084100 0.9 997665
15:00+8wnw6108259 0.1 997761
18:00+6wnw498928 0.1 998332
21:00+6nw498694 0.0 999354